• In Uzbekistan
  • List of Countries
  • For 7 days
  • Water Temperature
  • Satellite Maps
  • Weather Map
  • Weather Widgets
  • user-avatar
    Login

    Hourly Weather Trudolyubovo

    Today, 23 February, Friday

    Time Temperature Precipitation Wind Pressure Humidity
    00:00 -21°C° 0 mm 2 mps 754 mmHg 98%
    01:00 -21°C° 0 mm 2 mps 754 mmHg 99%
    02:00 -21°C° 0 mm 2 mps 755 mmHg 99%
    03:00 -23°C° 0 mm 2 mps 755 mmHg 99%
    04:00 -23°C° 0 mm 2 mps 755 mmHg 99%
    05:00 -23°C° 0 mm 2 mps 755 mmHg 99%
    06:00 -23°C° 0 mm 2 mps 755 mmHg 99%
    07:00 -20°C° 0 mm 1 mps 755 mmHg 99%
    08:00 -19°C° 0 mm 1 mps 755 mmHg 98%
    09:00 -20°C° 0 mm 1 mps 755 mmHg 96%
    10:00 -18°C° 0 mm 1 mps 755 mmHg 95%
    11:00 -19°C° 0 mm 2 mps 755 mmHg 93%
    12:00 -18°C° 0 mm 2 mps 755 mmHg 91%
    13:00 -18°C° 0 mm 2 mps 755 mmHg 92%
    14:00 -18°C° 0 mm 2 mps 755 mmHg 92%
    15:00 -17°C° 0 mm 2 mps 755 mmHg 92%
    16:00 -19°C° 0 mm 2 mps 755 mmHg 94%
    17:00 -20°C° 0 mm 2 mps 755 mmHg 95%
    18:00 -21°C° 0 mm 2 mps 755 mmHg 97%
    19:00 -23°C° 0 mm 2 mps 755 mmHg 97%
    20:00 -23°C° 0 mm 2 mps 755 mmHg 97%
    21:00 -23°C° 0 mm 2 mps 756 mmHg 96%
    22:00 -24°C° 0 mm 2 mps 756 mmHg 97%
    23:00 -24°C° 0 mm 2 mps 756 mmHg 97%

    Tomorrow, 24 February, Saturday

    Time Temperature Precipitation Wind Pressure Humidity
    00:00 -24°C° 0 mm 2 mps 756 mmHg 97%
    01:00 -24°C° 0 mm 2 mps 756 mmHg 97%
    02:00 -24°C° 0 mm 2 mps 756 mmHg 98%
    03:00 -25°C° 0 mm 2 mps 756 mmHg 98%
    04:00 -25°C° 0 mm 2 mps 756 mmHg 98%
    05:00 -25°C° 0 mm 2 mps 756 mmHg 98%
    06:00 -25°C° 0 mm 2 mps 756 mmHg 98%
    07:00 -24°C° 0 mm 2 mps 756 mmHg 98%
    08:00 -23°C° 0 mm 2 mps 757 mmHg 97%
    09:00 -21°C° 0 mm 2 mps 757 mmHg 96%
    10:00 -20°C° 0 mm 2 mps 757 mmHg 95%
    11:00 -19°C° 0 mm 2 mps 757 mmHg 93%
    12:00 -17°C° 0 mm 2 mps 757 mmHg 91%
    13:00 -15°C° 0 mm 1 mps 757 mmHg 92%
    14:00 -15°C° 0 mm 1 mps 757 mmHg 92%
    15:00 -15°C° 0 mm 1 mps 756 mmHg 92%
    16:00 -17°C° 0 mm 1 mps 756 mmHg 94%
    17:00 -18°C° 0 mm 1 mps 756 mmHg 97%
    18:00 -20°C° 0 mm 0 mps 756 mmHg 99%
    19:00 -21°C° 0 mm 0 mps 756 mmHg 99%
    20:00 -21°C° 0 mm 0 mps 756 mmHg 99%
    21:00 -22°C° 0 mm 0 mps 756 mmHg 99%
    22:00 -22°C° 0 mm 1 mps 756 mmHg 99%
    23:00 -22°C° 0 mm 1 mps 756 mmHg 99%

    Day after tomorrow, 25 February, Sunday

    Time Temperature Precipitation Wind Pressure Humidity
    00:00 -22°C° 0 mm 1 mps 756 mmHg 99%
    01:00 -22°C° 0 mm 1 mps 756 mmHg 99%
    02:00 -22°C° 0 mm 1 mps 756 mmHg 99%
    03:00 -22°C° 0 mm 1 mps 756 mmHg 99%
    04:00 -26°C° 0 mm 2 mps 756 mmHg 99%
    05:00 -26°C° 0 mm 2 mps 756 mmHg 99%
    06:00 -26°C° 0 mm 2 mps 755 mmHg 99%
    07:00 -25°C° 0 mm 2 mps 755 mmHg 98%
    08:00 -24°C° 0 mm 2 mps 755 mmHg 97%
    09:00 -24°C° 0 mm 2 mps 755 mmHg 96%
    10:00 -21°C° 0 mm 2 mps 755 mmHg 95%
    11:00 -20°C° 0 mm 2 mps 755 mmHg 94%
    12:00 -21°C° 0 mm 3 mps 755 mmHg 93%
    13:00 -21°C° 0 mm 3 mps 755 mmHg 93%
    14:00 -21°C° 0 mm 3 mps 755 mmHg 93%
    15:00 -19°C° 0 mm 3 mps 755 mmHg 93%
    16:00 -22°C° 0 mm 3 mps 755 mmHg 94%
    17:00 -23°C° 0 mm 3 mps 755 mmHg 95%
    18:00 -25°C° 0 mm 3 mps 755 mmHg 97%
    19:00 -25°C° 0 mm 3 mps 754 mmHg 97%
    20:00 -26°C° 0 mm 3 mps 754 mmHg 96%
    21:00 -27°C° 0 mm 3 mps 754 mmHg 96%
    22:00 -27°C° 0 mm 3 mps 754 mmHg 96%
    23:00 -27°C° 0 mm 3 mps 754 mmHg 95%

    26 February, Monday

    Time Temperature Precipitation Wind Pressure Humidity
    00:00 -29°C° 0 mm 3 mps 754 mmHg 95%
    01:00 -29°C° 0 mm 3 mps 754 mmHg 95%
    02:00 -29°C° 0 mm 3 mps 754 mmHg 95%
    03:00 -29°C° 0 mm 3 mps 754 mmHg 95%
    04:00 -29°C° 0 mm 3 mps 754 mmHg 95%
    05:00 -29°C° 0 mm 3 mps 753 mmHg 96%
    06:00 -27°C° 0 mm 3 mps 753 mmHg 96%
    07:00 -26°C° 0 mm 3 mps 753 mmHg 95%
    08:00 -25°C° 0 mm 3 mps 753 mmHg 95%
    09:00 -24°C° 0 mm 3 mps 753 mmHg 94%
    10:00 -23°C° 0 mm 3 mps 753 mmHg 94%
    11:00 -22°C° 0 mm 3 mps 753 mmHg 93%
    12:00 -21°C° 0 mm 3 mps 753 mmHg 92%
    13:00 -19°C° 0 mm 3 mps 753 mmHg 92%
    14:00 -20°C° 0 mm 4 mps 753 mmHg 92%
    15:00 -19°C° 0 mm 4 mps 752 mmHg 92%
    16:00 -20°C° 0 mm 4 mps 752 mmHg 93%
    17:00 -19°C° 0 mm 3 mps 753 mmHg 94%
    18:00 -21°C° 0 mm 3 mps 753 mmHg 95%
    19:00 -21°C° 0 mm 3 mps 753 mmHg 96%
    20:00 -22°C° 0 mm 3 mps 752 mmHg 96%
    21:00 -22°C° 0 mm 3 mps 752 mmHg 97%
    22:00 -23°C° 0 mm 3 mps 752 mmHg 97%
    23:00 -23°C° 0 mm 3 mps 753 mmHg 98%

    27 February, Tuesday

    Time Temperature Precipitation Wind Pressure Humidity
    00:00 -23°C° 0 mm 3 mps 753 mmHg 98%
    01:00 -23°C° 0 mm 3 mps 753 mmHg 97%
    02:00 -23°C° 0 mm 3 mps 753 mmHg 97%
    03:00 -24°C° 0 mm 4 mps 753 mmHg 97%
    04:00 -25°C° 0 mm 4 mps 753 mmHg 97%
    05:00 -25°C° 0 mm 3 mps 754 mmHg 97%
    06:00 -26°C° 0 mm 3 mps 754 mmHg 97%
    07:00 -26°C° 0 mm 3 mps 754 mmHg 97%
    08:00 -26°C° 0 mm 4 mps 754 mmHg 97%
    09:00 -26°C° 0 mm 4 mps 755 mmHg 96%
    10:00 -25°C° 0 mm 4 mps 755 mmHg 95%
    11:00 -24°C° 0 mm 4 mps 755 mmHg 95%
    12:00 -24°C° 0 mm 4 mps 756 mmHg 94%
    13:00 -23°C° 0 mm 4 mps 756 mmHg 93%
    14:00 -23°C° 0 mm 4 mps 757 mmHg 93%
    15:00 -23°C° 0 mm 4 mps 757 mmHg 92%
    16:00 -23°C° 0 mm 3 mps 757 mmHg 93%
    17:00 -25°C° 0 mm 3 mps 758 mmHg 95%
    18:00 -26°C° 0 mm 3 mps 758 mmHg 96%
    19:00 -26°C° 0 mm 2 mps 759 mmHg 96%
    20:00 -26°C° 0 mm 2 mps 759 mmHg 97%
    21:00 -27°C° 0 mm 2 mps 759 mmHg 97%
    22:00 -27°C° 0 mm 2 mps 760 mmHg 97%
    23:00 -28°C° 0 mm 2 mps 760 mmHg 96%

    28 February, Wednesday

    Time Temperature Precipitation Wind Pressure Humidity
    00:00 -28°C° 0 mm 2 mps 760 mmHg 96%
    01:00 -28°C° 0 mm 2 mps 761 mmHg 96%
    02:00 -29°C° 0 mm 2 mps 761 mmHg 96%
    03:00 -29°C° 0 mm 2 mps 762 mmHg 96%
    04:00 -29°C° 0 mm 2 mps 762 mmHg 96%
    05:00 -29°C° 0 mm 2 mps 762 mmHg 96%
    06:00 -28°C° 0 mm 1 mps 762 mmHg 97%
    07:00 -25°C° 0 mm 1 mps 763 mmHg 96%
    08:00 -24°C° 0 mm 1 mps 763 mmHg 95%
    09:00 -23°C° 0 mm 1 mps 763 mmHg 94%
    10:00 -22°C° 0 mm 1 mps 763 mmHg 93%
    11:00 -21°C° 0 mm 1 mps 763 mmHg 91%
    12:00 -20°C° 0 mm 1 mps 763 mmHg 89%
    13:00 -19°C° 0 mm 1 mps 763 mmHg 89%
    14:00 -19°C° 0 mm 1 mps 763 mmHg 89%
    15:00 -18°C° 0 mm 1 mps 763 mmHg 89%
    16:00 -20°C° 0 mm 1 mps 763 mmHg 91%
    17:00 -22°C° 0 mm 1 mps 762 mmHg 93%
    18:00 -23°C° 0 mm 1 mps 762 mmHg 95%
    19:00 -23°C° 0 mm 1 mps 762 mmHg 95%
    20:00 -24°C° 0 mm 1 mps 762 mmHg 95%
    21:00 -24°C° 0 mm 1 mps 762 mmHg 94%
    22:00 -23°C° 0 mm 1 mps 762 mmHg 94%
    23:00 -23°C° 0 mm 1 mps 762 mmHg 93%
    Show more